Home   Weather   Fort Myers   Past weeks

Flag for USA Past Weather in Fort Myers, Florida, USA — Yesterday and Last 2 Weeks

75 °F


Feels Like: 77 °F
Forecast: 65 / 82 °F
Wind: 13 mph from Northeast

Location: Page Field

Current Time: Oct 25, 2016 at 11:47:35 AM

Latest Report: Oct 25, 2016 at 10:53 AM

Visibility: 10 mi

Pressure: 30.18 "Hg

Humidity: 58%

Dew Point: 59 °F

Location of Fort MyersLocation

Past Weather in Fort Myers — Graph


Fort Myers Temperature Yesterday

Maximum temperature yesterday: 82 °F (at 4:53 PM)
Minimum temperature yesterday: 61 °F (at 5:53 AM)
Average temperature yesterday: 71 °F

High & Low Weather Summary for the Past Weeks

High89 °F (Oct 14, 2:53 PM)97% (Oct 14, 5:53 AM)30.23 "Hg (Oct 14, 5:53 AM)
Low56 °F (Oct 23, 7:53 AM)24% (Oct 22, 4:53 PM)29.80 "Hg (Oct 21, 4:53 PM)
Average75 °F70%30.01 "Hg
* Reported Oct 10 10:53 AM — Oct 25 10:53 AM, Fort Myers, Weather by CustomWeather, © 2016

Note: Actual official high and low records may vary slightly from our data, if they occured in-between our weather recording intervals... More about our weather records


Fort Myers Weather History for the Previous 24 Hours

Scroll right to see more
Time TempWeatherWind HumidityBarometerVisibility
10:53 AM
Tue, Oct 25
75 °FSunny.13 mph58%30.18 "Hg10 mi
9:53 AM72 °FOvercast.10 mph66%30.18 "Hg10 mi
8:53 AM67 °FPartly sunny.7 mph76%30.16 "Hg10 mi
7:53 AM64 °FSunny.8 mph84%30.15 "Hg10 mi
6:53 AM63 °FClear.5 mph87%30.14 "Hg10 mi
5:53 AM64 °FClear.7 mph84%30.12 "Hg10 mi
4:53 AM64 °FClear.7 mph84%30.11 "Hg10 mi
3:53 AM64 °FClear.5 mph84%30.12 "Hg10 mi
2:53 AM65 °FClear.6 mph85%30.12 "Hg10 mi
1:53 AM65 °FClear.7 mph81%30.15 "Hg10 mi
12:53 AM67 °FClear.7 mph76%30.15 "Hg10 mi
11:53 PM
Mon, Oct 24
68 °FClear.7 mph76%30.16 "Hg10 mi
10:53 PM69 °FClear.7 mph76%30.17 "Hg10 mi
9:53 PM70 °FClear.7 mph71%30.16 "Hg10 mi
8:53 PM71 °FClear.5 mph66%30.15 "Hg10 mi
7:53 PM73 °FClear.5 mph59%30.13 "Hg10 mi
6:53 PM75 °FPassing clouds.6 mph55%30.12 "Hg10 mi
5:53 PM78 °FScattered clouds.8 mph48%30.11 "Hg10 mi
4:53 PM82 °FSunny.10 mph43%30.11 "Hg10 mi
3:53 PM80 °FScattered clouds.9 mph45%30.12 "Hg10 mi
2:53 PM80 °FScattered clouds.5 mph45%30.13 "Hg10 mi
1:53 PM80 °FSunny.7 mph47%30.16 "Hg10 mi
12:53 PM78 °FPassing clouds.13 mph50%30.19 "Hg10 mi
11:53 AM77 °FSunny.10 mph52%30.22 "Hg10 mi
Weather by CustomWeather, © 2016

See weather overviewHow to use our weather pages